| time (UTC) | temp F | wind direction | speed MPH | gust MPH | rain 1hr in | rain 24hr in | rain mn in | humidity % | barometer mb |
| 20260507180042 | 56 | 287 | 3.0 | 7.0 | 0.00 | 0.00 | 0.00 | 41 | |
| 20260507175538 | 56 | 258 | 8.0 | 10.0 | 0.00 | 0.00 | 0.00 | 40 | |
| 20260507175037 | 56 | 302 | 3.0 | 8.0 | 0.00 | 0.00 | 0.00 | 42 | |
| 20260507174533 | 55 | 281 | 4.0 | 8.0 | 0.00 | 0.00 | 0.00 | 42 | |
| 20260507174031 | 55 | 337 | 5.0 | 9.0 | 0.00 | 0.00 | 0.00 | 42 | |
| 20260507173527 | 56 | 278 | 2.0 | 9.0 | 0.00 | 0.00 | 0.00 | 42 | |
| 20260507173025 | 56 | 278 | 3.0 | 7.0 | 0.00 | 0.00 | 0.00 | 43 | |
| 20260507172520 | 56 | 313 | 4.0 | 6.0 | 0.00 | 0.00 | 0.00 | 41 | |
| 20260507172017 | 56 | 261 | 2.0 | 5.0 | 0.00 | 0.00 | 0.00 | 42 | |
| 20260507171513 | 57 | 333 | 3.0 | 6.0 | 0.00 | 0.00 | 0.00 | 41 | |
| 20260507171011 | 57 | 288 | 3.0 | 8.0 | 0.00 | 0.00 | 0.00 | 42 | |
| 20260507170507 | 58 | 257 | 2.0 | 6.0 | 0.00 | 0.00 | 0.00 | 41 | |
| 20260507170004 | 55 | 259 | 1.0 | 6.0 | 0.00 | 0.00 | 0.00 | 44 | |
| 20260507165459 | 57 | 279 | 2.0 | 6.0 | 0.00 | 0.00 | 0.00 | 42 | |
| 20260507164955 | 56 | 277 | 2.0 | 6.0 | 0.00 | 0.00 | 0.00 | 41 | |
| 20260507164452 | 56 | 257 | 1.0 | 6.0 | 0.00 | 0.00 | 0.00 | 43 | |
| 20260507163949 | 56 | 250 | 2.0 | 3.0 | 0.00 | 0.00 | 0.00 | 42 | |
| 20260507163447 | 57 | 255 | 3.0 | 8.0 | 0.00 | 0.00 | 0.00 | 42 | |
| 20260507162944 | 57 | 318 | 2.0 | 3.0 | 0.00 | 0.00 | 0.00 | 41 | |
| 20260507162439 | 55 | 326 | 2.0 | 5.0 | 0.00 | 0.00 | 0.00 | 43 | |
| 20260507161936 | 56 | 343 | 3.0 | 7.0 | 0.00 | 0.00 | 0.00 | 42 | |
| 20260507161432 | 57 | 259 | 7.0 | 9.0 | 0.00 | 0.00 | 0.00 | 42 | |
| 20260507160929 | 59 | 301 | 4.0 | 6.0 | 0.00 | 0.00 | 0.00 | 38 | |
| 20260507160425 | 59 | 278 | 4.0 | 10.0 | 0.00 | 0.00 | 0.00 | 40 | |
| 20260507155921 | 60 | 225 | 3.0 | 9.0 | 0.00 | 0.00 | 0.00 | 37 | |
| 20260507155417 | 58 | 254 | 3.0 | 5.0 | 0.00 | 0.00 | 0.00 | 40 | |
| 20260507154915 | 59 | 250 | 1.0 | 6.0 | 0.00 | 0.00 | 0.00 | 39 | |
| 20260507154411 | 59 | 245 | 2.0 | 6.0 | 0.00 | 0.00 | 0.00 | 38 | |
| 20260507153909 | 57 | 272 | 3.0 | 7.0 | 0.00 | 0.00 | 0.00 | 43 | |
| 20260507153405 | 59 | 316 | 4.0 | 6.0 | 0.00 | 0.00 | 0.00 | 41 | |
| 20260507152902 | 58 | 315 | 1.0 | 6.0 | 0.00 | 0.00 | 0.00 | 41 | |
| 20260507152358 | 58 | 237 | 3.0 | 6.0 | 0.00 | 0.00 | 0.00 | 40 | |
| 20260507151854 | 58 | 275 | 3.0 | 7.0 | 0.00 | 0.00 | 0.00 | 39 | |
| 20260507151350 | 58 | 345 | 3.0 | 6.0 | 0.00 | 0.00 | 0.00 | 40 | |
| 20260507150847 | 57 | 246 | 1.0 | 7.0 | 0.00 | 0.00 | 0.00 | 42 | |
| 20260507150344 | 57 | 269 | 3.0 | 6.0 | 0.00 | 0.00 | 0.00 | 40 | |
| 20260507145840 | 57 | 242 | 4.0 | 6.0 | 0.00 | 0.00 | 0.00 | 41 | |
| 20260507145337 | 57 | 346 | 4.0 | 7.0 | 0.00 | 0.00 | 0.00 | 41 | |
| 20260507144834 | 57 | 243 | 1.0 | 3.0 | 0.00 | 0.00 | 0.00 | 40 | |
| 20260507144331 | 56 | 222 | 1.0 | 6.0 | 0.00 | 0.00 | 0.00 | 44 | |
| 20260507143827 | 57 | 248 | 3.0 | 5.0 | 0.00 | 0.00 | 0.00 | 39 | |
| 20260507143320 | 56 | 277 | 3.0 | 3.0 | 0.00 | 0.00 | 0.00 | 40 | |
| 20260507142815 | 57 | 245 | 1.0 | 2.0 | 0.00 | 0.00 | 0.00 | 41 | |
| 20260507142312 | 57 | 274 | 3.0 | 6.0 | 0.00 | 0.00 | 0.00 | 39 | |
| 20260507141809 | 57 | 222 | 1.0 | 1.0 | 0.00 | 0.00 | 0.00 | 42 | |
| 20260507141306 | 56 | 244 | 1.0 | 5.0 | 0.00 | 0.00 | 0.00 | 42 | |
| 20260507140802 | 56 | 281 | 3.0 | 3.0 | 0.00 | 0.00 | 0.00 | 45 | |
| 20260507140259 | 55 | 262 | 0.0 | 2.0 | 0.00 | 0.00 | 0.00 | 44 | |
| 20260507135756 | 53 | 294 | 1.0 | 6.0 | 0.00 | 0.00 | 0.00 | 49 | |
| 20260507135253 | 56 | 6 | 3.0 | 3.0 | 0.00 | 0.00 | 0.00 | 44 | |
| 20260507134750 | 55 | 239 | 0.0 | 2.0 | 0.00 | 0.00 | 0.00 | 43 | |
| 20260507134247 | 55 | 192 | 2.0 | 3.0 | 0.00 | 0.00 | 0.00 | 45 | |
| 20260507133742 | 54 | 244 | 1.0 | 2.0 | 0.00 | 0.00 | 0.00 | 45 | |
| 20260507133239 | 53 | 261 | 2.0 | 3.0 | 0.00 | 0.00 | 0.00 | 46 | |
| 20260507132737 | 54 | 231 | 1.0 | 3.0 | 0.00 | 0.00 | 0.00 | 45 | |
| 20260507132233 | 54 | 246 | 1.0 | 2.0 | 0.00 | 0.00 | 0.00 | 46 | |
| 20260507131730 | 54 | 226 | 1.0 | 2.0 | 0.00 | 0.00 | 0.00 | 44 | |
| 20260507131227 | 52 | 233 | 1.0 | 2.0 | 0.00 | 0.00 | 0.00 | 48 | |
| 20260507130724 | 53 | 272 | 1.0 | 1.0 | 0.00 | 0.00 | 0.00 | 48 | |
| 20260507130222 | 53 | 285 | 2.0 | 5.0 | 0.00 | 0.00 | 0.00 | 47 | |
| 20260507125720 | 52 | 152 | 0.0 | 2.0 | 0.00 | 0.00 | 0.00 | 48 | |
| 20260507125217 | 52 | 248 | 1.0 | 5.0 | 0.00 | 0.00 | 0.00 | 49 | |
| 20260507124714 | 53 | 268 | 0.0 | 2.0 | 0.00 | 0.00 | 0.00 | 49 | |
| 20260507124211 | 52 | 236 | 0.0 | 2.0 | 0.00 | 0.00 | 0.00 | 51 | |
| 20260507123709 | 51 | 237 | 1.0 | 2.0 | 0.00 | 0.00 | 0.00 | 54 | |
| 20260507123206 | 50 | 247 | 1.0 | 2.0 | 0.00 | 0.00 | 0.00 | 56 | |
| 20260507122701 | 50 | 235 | 1.0 | 1.0 | 0.00 | 0.00 | 0.00 | 56 | |
| 20260507122157 | 49 | 261 | 0.0 | 2.0 | 0.00 | 0.00 | 0.00 | 57 | |
| 20260507121653 | 49 | 238 | 0.0 | 2.0 | 0.00 | 0.00 | 0.00 | 59 | |
| 20260507121149 | 48 | 248 | 1.0 | 2.0 | 0.00 | 0.00 | 0.00 | 60 | |
| 20260507120646 | 48 | 263 | 1.0 | 2.0 | 0.00 | 0.00 | 0.00 | 60 | |
| 20260507120142 | 47 | 317 | 1.0 | 2.0 | 0.00 | 0.00 | 0.00 | 61 | |
| 20260507115639 | 47 | 241 | 1.0 | 1.0 | 0.00 | 0.00 | 0.00 | 62 | |
| 20260507115134 | 46 | 239 | 0.0 | 1.0 | 0.00 | 0.00 | 0.00 | 65 | |
| 20260507114630 | 44 | 252 | 0.0 | 1.0 | 0.00 | 0.00 | 0.00 | 67 | |
| 20260507114128 | 43 | 265 | 1.0 | 1.0 | 0.00 | 0.00 | 0.00 | 69 | |
| 20260507113626 | 43 | 263 | 0.0 | 1.0 | 0.00 | 0.00 | 0.00 | 71 | |
| 20260507113122 | 42 | 264 | 0.0 | 0.0 | 0.00 | 0.00 | 0.00 | 72 | |
| 20260507112620 | 42 | 252 | 0.0 | 0.0 | 0.00 | 0.00 | 0.00 | 73 | |
| 20260507112116 | 42 | 239 | 0.0 | 0.0 | 0.00 | 0.00 | 0.00 | 73 | |
| 20260507111614 | 42 | 238 | 0.0 | 0.0 | 0.00 | 0.00 | 0.00 | 73 | |
| 20260507111110 | 42 | 238 | 0.0 | 0.0 | 0.00 | 0.00 | 0.00 | 73 | |
| 20260507110607 | 41 | 236 | 0.0 | 0.0 | 0.00 | 0.00 | 0.00 | 73 | |
| 20260507110103 | 41 | 235 | 0.0 | 0.0 | 0.00 | 0.00 | 0.00 | 73 | |
| 20260507105600 | 41 | 236 | 0.0 | 0.0 | 0.00 | 0.00 | 0.00 | 74 | |
| 20260507105056 | 41 | 236 | 0.0 | 0.0 | 0.00 | 0.00 | 0.00 | 74 | |
| 20260507104554 | 41 | 235 | 0.0 | 0.0 | 0.00 | 0.00 | 0.00 | 74 | |
| 20260507104050 | 41 | 235 | 0.0 | 0.0 | 0.00 | 0.00 | 0.00 | 74 | |
| 20260507103546 | 41 | 235 | 0.0 | 0.0 | 0.00 | 0.00 | 0.00 | 73 | |
| 20260507103043 | 41 | 233 | 0.0 | 1.0 | 0.00 | 0.00 | 0.00 | 73 | |
| 20260507102539 | 41 | 242 | 0.0 | 0.0 | 0.00 | 0.00 | 0.00 | 72 | |
| 20260507102036 | 41 | 250 | 0.0 | 0.0 | 0.00 | 0.00 | 0.00 | 70 | |
| 20260507101531 | 42 | 257 | 0.0 | 0.0 | 0.00 | 0.00 | 0.00 | 69 | |
| 20260507101028 | 42 | 268 | 0.0 | 1.0 | 0.00 | 0.00 | 0.00 | 69 | |
| 20260507100525 | 42 | 270 | 1.0 | 1.0 | 0.00 | 0.00 | 0.00 | 69 | |
| 20260507100023 | 42 | 270 | 0.0 | 1.0 | 0.00 | 0.00 | 0.00 | 68 | |
| 20260507095521 | 42 | 265 | 0.0 | 0.0 | 0.00 | 0.00 | 0.00 | 68 | |
| 20260507095017 | 42 | 255 | 0.0 | 0.0 | 0.00 | 0.00 | 0.00 | 68 | |
| 20260507094514 | 43 | 255 | 0.0 | 0.0 | 0.00 | 0.00 | 0.00 | 67 | |
| 20260507094011 | 43 | 267 | 0.0 | 0.0 | 0.00 | 0.00 | 0.00 | 67 | |
| 20260507093508 | 43 | 259 | 0.0 | 0.0 | 0.00 | 0.00 | 0.00 | 67 | |
| 20260507093007 | 42 | 244 | 0.0 | 0.0 | 0.00 | 0.00 | 0.00 | 66 | |
| 20260507092503 | 43 | 244 | 0.0 | 0.0 | 0.00 | 0.00 | 0.00 | 65 | |
| 20260507092000 | 44 | 242 | 0.0 | 0.0 | 0.00 | 0.00 | 0.00 | 64 | |
| 20260507091456 | 44 | 259 | 0.0 | 0.0 | 0.00 | 0.00 | 0.00 | 63 | |
| 20260507090952 | 44 | 261 | 0.0 | 0.0 | 0.00 | 0.00 | 0.00 | 62 | |
| 20260507090448 | 45 | 264 | 0.0 | 1.0 | 0.00 | 0.00 | 0.00 | 62 | |
| 20260507085945 | 45 | 256 | 0.0 | 0.0 | 0.00 | 0.00 | 0.00 | 62 | |
| 20260507085442 | 45 | 259 | 0.0 | 0.0 | 0.00 | 0.00 | 0.00 | 61 | |
| 20260507084939 | 45 | 261 | 0.0 | 0.0 | 0.00 | 0.00 | 0.00 | 61 | |
| 20260507084435 | 46 | 258 | 0.0 | 0.0 | 0.00 | 0.00 | 0.00 | 60 | |
| 20260507083933 | 46 | 254 | 0.0 | 0.0 | 0.00 | 0.00 | 0.00 | 60 | |
| 20260507083429 | 46 | 277 | 1.0 | 1.0 | 0.00 | 0.00 | 0.00 | 59 | |
| 20260507082925 | 46 | 262 | 0.0 | 1.0 | 0.00 | 0.00 | 0.00 | 59 | |
| 20260507082421 | 46 | 260 | 1.0 | 1.0 | 0.00 | 0.00 | 0.00 | 59 | |
| 20260507081918 | 46 | 254 | 1.0 | 1.0 | 0.00 | 0.00 | 0.00 | 59 | |
| 20260507081414 | 46 | 259 | 0.0 | 1.0 | 0.00 | 0.00 | 0.00 | 59 | |
| 20260507080911 | 46 | 289 | 0.0 | 2.0 | 0.00 | 0.00 | 0.00 | 59 | |
| 20260507080408 | 46 | 253 | 0.0 | 1.0 | 0.00 | 0.00 | 0.00 | 59 | |
| 20260507075903 | 46 | 263 | 0.0 | 1.0 | 0.00 | 0.00 | 0.00 | 59 | |
| 20260507075359 | 46 | 254 | 0.0 | 1.0 | 0.00 | 0.00 | 0.00 | 59 | |
| 20260507074856 | 46 | 252 | 0.0 | 1.0 | 0.00 | 0.00 | 0.00 | 59 | |
| 20260507074353 | 46 | 264 | 0.0 | 1.0 | 0.00 | 0.00 | 0.00 | 59 | |
| 20260507073850 | 46 | 254 | 0.0 | 1.0 | 0.00 | 0.00 | 0.00 | 59 | |
| 20260507073347 | 46 | 277 | 0.0 | 1.0 | 0.00 | 0.00 | 0.00 | 59 | |
| 20260507072844 | 46 | 258 | 0.0 | 1.0 | 0.00 | 0.00 | 0.00 | 59 | |
| 20260507072341 | 46 | 272 | 0.0 | 0.0 | 0.00 | 0.00 | 0.00 | 59 | |
| 20260507071839 | 46 | 288 | 0.0 | 1.0 | 0.00 | 0.00 | 0.00 | 59 | |
| 20260507071336 | 47 | 259 | 0.0 | 1.0 | 0.00 | 0.00 | 0.00 | 59 | |
| 20260507070832 | 47 | 256 | 0.0 | 1.0 | 0.00 | 0.00 | 0.00 | 58 | |
| 20260507070329 | 47 | 260 | 0.0 | 1.0 | 0.00 | 0.00 | 0.00 | 59 | |
| 20260507065826 | 47 | 300 | 1.0 | 2.0 | 0.00 | 0.00 | 0.00 | 59 | |
| 20260507065323 | 47 | 263 | 0.0 | 1.0 | 0.00 | 0.00 | 0.00 | 60 | |
| 20260507064820 | 47 | 265 | 0.0 | 1.0 | 0.00 | 0.00 | 0.00 | 60 | |
| 20260507064318 | 47 | 266 | 0.0 | 2.0 | 0.00 | 0.00 | 0.00 | 61 | |
| 20260507063816 | 47 | 270 | 0.0 | 1.0 | 0.00 | 0.00 | 0.00 | 61 | |
| 20260507063313 | 47 | 256 | 0.0 | 0.0 | 0.00 | 0.00 | 0.00 | 61 | |
| 20260507062809 | 47 | 253 | 0.0 | 1.0 | 0.00 | 0.00 | 0.00 | 61 | |
| 20260507062307 | 46 | 262 | 1.0 | 1.0 | 0.00 | 0.00 | 0.00 | 61 | |
| 20260507061805 | 47 | 258 | 0.0 | 1.0 | 0.00 | 0.00 | 0.00 | 61 | |
| 20260507061302 | 47 | 254 | 0.0 | 0.0 | 0.00 | 0.00 | 0.00 | 60 | |
| 20260507060800 | 47 | 255 | 0.0 | 0.0 | 0.00 | 0.00 | 0.00 | 61 | |
| 20260507060256 | 47 | 247 | 0.0 | 0.0 | 0.00 | 0.00 | 0.00 | 61 | |
| 20260507055753 | 47 | 246 | 0.0 | 0.0 | 0.00 | 0.00 | 0.00 | 60 | |
| 20260507055248 | 47 | 242 | 0.0 | 0.0 | 0.00 | 0.00 | 0.00 | 59 | |
| 20260507054745 | 47 | 242 | 0.0 | 0.0 | 0.00 | 0.00 | 0.00 | 58 | |
| 20260507054242 | 48 | 242 | 0.0 | 0.0 | 0.00 | 0.00 | 0.00 | 57 | |
| 20260507053739 | 48 | 244 | 0.0 | 0.0 | 0.00 | 0.00 | 0.00 | 56 | |
| 20260507053236 | 48 | 244 | 0.0 | 0.0 | 0.00 | 0.00 | 0.00 | 57 | |
| 20260507052735 | 48 | 255 | 0.0 | 0.0 | 0.00 | 0.00 | 0.00 | 56 | |
| 20260507052231 | 48 | 259 | 0.0 | 0.0 | 0.00 | 0.00 | 0.00 | 56 | |
| 20260507051730 | 48 | 239 | 0.0 | 0.0 | 0.00 | 0.00 | 0.00 | 54 | |
| 20260507051226 | 49 | 239 | 0.0 | 0.0 | 0.00 | 0.00 | 0.00 | 54 | |
| 20260507050723 | 49 | 239 | 0.0 | 0.0 | 0.00 | 0.00 | 0.00 | 54 | |
| 20260507050220 | 49 | 238 | 0.0 | 0.0 | 0.00 | 0.00 | 0.00 | 53 | |
| 20260507045716 | 49 | 238 | 0.0 | 0.0 | 0.00 | 0.00 | 0.00 | 52 | |
| 20260507045212 | 50 | 235 | 0.0 | 0.0 | 0.00 | 0.00 | 0.00 | 52 | |
| 20260507044710 | 50 | 257 | 0.0 | 0.0 | 0.00 | 0.00 | 0.00 | 52 | |
| 20260507044206 | 50 | 257 | 0.0 | 0.0 | 0.00 | 0.00 | 0.00 | 51 | |
| 20260507043703 | 50 | 250 | 0.0 | 1.0 | 0.00 | 0.00 | 0.00 | 52 | |
| 20260507043200 | 50 | 250 | 0.0 | 0.0 | 0.00 | 0.00 | 0.00 | 51 | |
| 20260507042656 | 50 | 258 | 0.0 | 0.0 | 0.00 | 0.00 | 0.00 | 51 | |
| 20260507042151 | 50 | 254 | 0.0 | 0.0 | 0.00 | 0.00 | 0.00 | 51 | |
| 20260507041648 | 50 | 257 | 0.0 | 0.0 | 0.00 | 0.00 | 0.00 | 51 | |
| 20260507041144 | 50 | 258 | 0.0 | 0.0 | 0.00 | 0.00 | 0.00 | 51 | |
| 20260507040642 | 50 | 252 | 0.0 | 1.0 | 0.00 | 0.00 | 0.00 | 51 | |
| 20260507040138 | 50 | 252 | 0.0 | 0.0 | 0.00 | 0.00 | 0.00 | 51 | |
| 20260507035634 | 50 | 254 | 0.0 | 0.0 | 0.00 | 0.00 | 0.00 | 51 | |
| 20260507035130 | 50 | 248 | 0.0 | 0.0 | 0.00 | 0.00 | 0.00 | 51 | |
| 20260507034627 | 50 | 252 | 0.0 | 0.0 | 0.00 | 0.00 | 0.00 | 50 | |
| 20260507034125 | 51 | 257 | 0.0 | 0.0 | 0.00 | 0.00 | 0.00 | 50 | |
| 20260507033623 | 51 | 244 | 0.0 | 2.0 | 0.00 | 0.00 | 0.00 | 51 | |
| 20260507033120 | 51 | 257 | 0.0 | 0.0 | 0.00 | 0.00 | 0.00 | 51 | |
| 20260507032617 | 51 | 262 | 0.0 | 1.0 | 0.00 | 0.00 | 0.00 | 51 | |
| 20260507032113 | 51 | 258 | 0.0 | 1.0 | 0.00 | 0.00 | 0.00 | 50 | |
| 20260507031610 | 51 | 248 | 0.0 | 1.0 | 0.00 | 0.00 | 0.00 | 50 | |
| 20260507031107 | 51 | 244 | 0.0 | 1.0 | 0.00 | 0.00 | 0.00 | 50 | |
| 20260507030603 | 51 | 263 | 0.0 | 1.0 | 0.00 | 0.00 | 0.00 | 50 | |
| 20260507030101 | 51 | 270 | 1.0 | 1.0 | 0.00 | 0.00 | 0.00 | 51 | |
| 20260507025558 | 51 | 259 | 0.0 | 1.0 | 0.00 | 0.00 | 0.00 | 51 | |
| 20260507025055 | 50 | 277 | 1.0 | 1.0 | 0.00 | 0.00 | 0.00 | 53 | |
| 20260507024553 | 50 | 238 | 0.0 | 0.0 | 0.00 | 0.00 | 0.00 | 54 | |
| 20260507024050 | 51 | 238 | 0.0 | 0.0 | 0.00 | 0.00 | 0.00 | 52 | |
| 20260507023545 | 51 | 237 | 0.0 | 0.0 | 0.00 | 0.00 | 0.00 | 52 | |
| 20260507023043 | 51 | 234 | 0.0 | 0.0 | 0.00 | 0.00 | 0.00 | 52 | |
| 20260507022540 | 51 | 234 | 0.0 | 0.0 | 0.00 | 0.00 | 0.00 | 51 | |
| 20260507022035 | 51 | 233 | 0.0 | 0.0 | 0.00 | 0.00 | 0.00 | 50 | |
| 20260507021531 | 51 | 235 | 0.0 | 0.0 | 0.00 | 0.00 | 0.00 | 50 | |
| 20260507021028 | 51 | 234 | 0.0 | 0.0 | 0.00 | 0.00 | 0.00 | 49 | |
| 20260507020526 | 51 | 228 | 0.0 | 1.0 | 0.00 | 0.00 | 0.00 | 49 | |
| 20260507020022 | 52 | 247 | 0.0 | 0.0 | 0.00 | 0.00 | 0.00 | 49 | |
| 20260507015520 | 52 | 254 | 0.0 | 0.0 | 0.00 | 0.00 | 0.00 | 48 | |
| 20260507015018 | 52 | 256 | 0.0 | 1.0 | 0.00 | 0.00 | 0.00 | 48 | |
| 20260507014514 | 52 | 261 | 0.0 | 1.0 | 0.00 | 0.00 | 0.00 | 48 | |
| 20260507014010 | 52 | 244 | 0.0 | 0.0 | 0.00 | 0.00 | 0.00 | 48 | |
| 20260507013507 | 52 | 257 | 0.0 | 0.0 | 0.00 | 0.00 | 0.00 | 47 | |
| 20260507013004 | 52 | 261 | 0.0 | 1.0 | 0.00 | 0.00 | 0.00 | 47 | |
| 20260507012501 | 52 | 257 | 0.0 | 0.0 | 0.00 | 0.00 | 0.00 | 48 | |
| 20260507011957 | 52 | 258 | 0.0 | 0.0 | 0.00 | 0.00 | 0.00 | 47 | |
| 20260507011455 | 52 | 258 | 0.0 | 0.0 | 0.00 | 0.00 | 0.00 | 48 | |
| 20260507010950 | 52 | 258 | 0.0 | 0.0 | 0.00 | 0.00 | 0.00 | 47 | |
| 20260507010445 | 52 | 253 | 0.0 | 0.0 | 0.00 | 0.00 | 0.00 | 47 | |
| 20260507005942 | 52 | 258 | 0.0 | 0.0 | 0.00 | 0.00 | 0.00 | 47 | |
| 20260507005439 | 53 | 266 | 0.0 | 1.0 | 0.00 | 0.00 | 0.00 | 46 | |
| 20260507004935 | 53 | 257 | 0.0 | 1.0 | 0.00 | 0.00 | 0.00 | 46 | |
| 20260507004432 | 53 | 255 | 0.0 | 0.0 | 0.00 | 0.00 | 0.00 | 46 | |
| 20260507003930 | 53 | 254 | 0.0 | 1.0 | 0.00 | 0.00 | 0.00 | 46 | |
| 20260507003425 | 53 | 253 | 0.0 | 1.0 | 0.00 | 0.00 | 0.00 | 44 | |
| 20260507002920 | 53 | 252 | 0.0 | 1.0 | 0.00 | 0.00 | 0.00 | 44 | |
| 20260507002417 | 54 | 252 | 0.0 | 0.0 | 0.00 | 0.00 | 0.00 | 44 | |
| 20260507001914 | 53 | 288 | 2.0 | 3.0 | 0.00 | 0.00 | 0.00 | 43 | |
| 20260507001410 | 54 | 265 | 0.0 | 1.0 | 0.00 | 0.00 | 0.00 | 44 | |
| 20260507000908 | 54 | 252 | 0.0 | 1.0 | 0.00 | 0.00 | 0.00 | 44 | |
| 20260507000405 | 54 | 270 | 1.0 | 2.0 | 0.00 | 0.00 | 0.00 | 43 | |
| 20260506235859 | 54 | 302 | 1.0 | 1.0 | 0.00 | 0.00 | 0.00 | 44 | |
| 20260506235357 | 54 | 264 | 0.0 | 2.0 | 0.00 | 0.00 | 0.00 | 44 | |
| 20260506234852 | 54 | 257 | 0.0 | 1.0 | 0.00 | 0.00 | 0.00 | 44 | |
| 20260506234350 | 54 | 249 | 0.0 | 2.0 | 0.00 | 0.00 | 0.00 | 44 | |
| 20260506233848 | 54 | 281 | 0.0 | 2.0 | 0.00 | 0.00 | 0.00 | 43 | |
| 20260506233343 | 55 | 287 | 1.0 | 2.0 | 0.00 | 0.00 | 0.00 | 42 | |
| 20260506232841 | 55 | 252 | 1.0 | 1.0 | 0.00 | 0.00 | 0.00 | 44 | |
| 20260506232336 | 55 | 261 | 0.0 | 1.0 | 0.00 | 0.00 | 0.00 | 43 | |
| 20260506231832 | 55 | 251 | 1.0 | 2.0 | 0.00 | 0.00 | 0.00 | 43 | |
| 20260506231331 | 55 | 294 | 1.0 | 3.0 | 0.00 | 0.00 | 0.00 | 44 | |
| 20260506230828 | 55 | 266 | 0.0 | 1.0 | 0.00 | 0.00 | 0.00 | 42 | |
| 20260506230325 | 55 | 300 | 2.0 | 3.0 | 0.00 | 0.00 | 0.00 | 42 | |
| 20260506225820 | 54 | 320 | 3.0 | 5.0 | 0.00 | 0.00 | 0.00 | 43 | |
| 20260506225318 | 55 | 262 | 2.0 | 6.0 | 0.00 | 0.00 | 0.00 | 42 | |
| 20260506224815 | 55 | 253 | 3.0 | 5.0 | 0.00 | 0.00 | 0.00 | 42 | |
| 20260506224312 | 56 | 283 | 1.0 | 1.0 | 0.00 | 0.00 | 0.00 | 42 | |
| 20260506223808 | 56 | 240 | 1.0 | 2.0 | 0.00 | 0.00 | 0.00 | 42 | |
| 20260506223303 | 55 | 258 | 0.0 | 5.0 | 0.00 | 0.00 | 0.00 | 42 | |
| 20260506222800 | 56 | 240 | 2.0 | 3.0 | 0.00 | 0.00 | 0.00 | 41 | |
| 20260506222255 | 56 | 323 | 4.0 | 5.0 | 0.00 | 0.00 | 0.00 | 40 | |
| 20260506221749 | 56 | 339 | 3.0 | 5.0 | 0.00 | 0.00 | 0.00 | 40 | |
| 20260506221246 | 56 | 340 | 3.0 | 7.0 | 0.00 | 0.00 | 0.00 | 41 | |
| 20260506220743 | 56 | 292 | 2.0 | 5.0 | 0.00 | 0.00 | 0.00 | 40 | |
| 20260506220238 | 57 | 313 | 2.0 | 6.0 | 0.00 | 0.00 | 0.00 | 41 | |
| 20260506215735 | 57 | 270 | 2.0 | 3.0 | 0.00 | 0.00 | 0.00 | 40 | |
| 20260506215231 | 57 | 247 | 0.0 | 2.0 | 0.00 | 0.00 | 0.00 | 41 | |
| 20260506214727 | 57 | 355 | 5.0 | 6.0 | 0.00 | 0.00 | 0.00 | 40 | |
| 20260506214225 | 58 | 252 | 2.0 | 3.0 | 0.00 | 0.00 | 0.00 | 41 | |
| 20260506213723 | 57 | 236 | 3.0 | 6.0 | 0.00 | 0.00 | 0.00 | 40 | |
| 20260506213220 | 55 | 355 | 5.0 | 6.0 | 0.00 | 0.00 | 0.00 | 40 | |
| 20260506212717 | 55 | 294 | 2.0 | 6.0 | 0.00 | 0.00 | 0.00 | 42 | |
| 20260506212212 | 55 | 252 | 2.0 | 3.0 | 0.00 | 0.00 | 0.00 | 42 | |
| 20260506211708 | 56 | 322 | 2.0 | 7.0 | 0.00 | 0.00 | 0.00 | 42 | |
| 20260506211204 | 56 | 267 | 1.0 | 3.0 | 0.00 | 0.00 | 0.00 | 43 | |
| 20260506210702 | 57 | 271 | 1.0 | 5.0 | 0.00 | 0.00 | 0.00 | 43 | |
| 20260506210158 | 57 | 319 | 4.0 | 5.0 | 0.00 | 0.00 | 0.00 | 40 | |
| 20260506205655 | 56 | 266 | 2.0 | 6.0 | 0.00 | 0.00 | 0.00 | 40 | |
| 20260506205150 | 55 | 239 | 1.0 | 5.0 | 0.00 | 0.00 | 0.00 | 43 | |
| 20260506204648 | 56 | 248 | 0.0 | 6.0 | 0.00 | 0.00 | 0.00 | 41 | |
| 20260506204145 | 55 | 294 | 1.0 | 5.0 | 0.00 | 0.00 | 0.00 | 42 | |
| 20260506203643 | 55 | 289 | 3.0 | 5.0 | 0.00 | 0.00 | 0.00 | 43 | |
| 20260506203140 | 55 | 280 | 3.0 | 7.0 | 0.00 | 0.00 | 0.00 | 43 | |
| 20260506202638 | 57 | 293 | 4.0 | 7.0 | 0.00 | 0.00 | 0.00 | 40 | |
| 20260506202133 | 57 | 300 | 2.0 | 5.0 | 0.00 | 0.00 | 0.00 | 40 | |
| 20260506201631 | 58 | 325 | 2.0 | 7.0 | 0.00 | 0.00 | 0.00 | 39 | |
| 20260506201127 | 58 | 316 | 3.0 | 6.0 | 0.00 | 0.00 | 0.00 | 40 | |
| 20260506200624 | 57 | 258 | 5.0 | 8.0 | 0.00 | 0.00 | 0.00 | 41 | |
| 20260506200120 | 57 | 322 | 1.0 | 3.0 | 0.00 | 0.00 | 0.00 | 42 | |
| 20260506195617 | 57 | 325 | 3.0 | 5.0 | 0.00 | 0.00 | 0.00 | 43 | |
| 20260506195113 | 55 | 335 | 4.0 | 6.0 | 0.00 | 0.00 | 0.00 | 41 | |
| 20260506194611 | 55 | 319 | 3.0 | 5.0 | 0.00 | 0.00 | 0.00 | 44 | |
| 20260506194107 | 55 | 296 | 2.0 | 3.0 | 0.00 | 0.00 | 0.00 | 44 | |
| 20260506193605 | 56 | 245 | 1.0 | 5.0 | 0.00 | 0.00 | 0.00 | 42 | |
| 20260506193102 | 55 | 297 | 3.0 | 5.0 | 0.00 | 0.00 | 0.00 | 44 | |
| 20260506192559 | 56 | 325 | 6.0 | 8.0 | 0.00 | 0.00 | 0.00 | 41 | |
| 20260506192054 | 56 | 321 | 4.0 | 5.0 | 0.00 | 0.00 | 0.00 | 41 | |
| 20260506191551 | 59 | 333 | 5.0 | 7.0 | 0.00 | 0.00 | 0.00 | 40 | |
| 20260506191047 | 59 | 6 | 3.0 | 6.0 | 0.00 | 0.00 | 0.00 | 42 | |
| 20260506190545 | 57 | 308 | 2.0 | 3.0 | 0.00 | 0.00 | 0.00 | 42 | |
| 20260506190042 | 56 | 294 | 3.0 | 8.0 | 0.00 | 0.00 | 0.00 | 42 | |
| 20260506185539 | 56 | 291 | 3.0 | 7.0 | 0.00 | 0.00 | 0.00 | 41 | |
| 20260506185035 | 56 | 254 | 3.0 | 7.0 | 0.00 | 0.00 | 0.00 | 44 | |
| 20260506184533 | 55 | 29 | 2.0 | 5.0 | 0.00 | 0.00 | 0.00 | 45 | |
| 20260506184030 | 55 | 322 | 4.0 | 8.0 | 0.00 | 0.00 | 0.00 | 43 | |
| 20260506183526 | 55 | 241 | 4.0 | 5.0 | 0.00 | 0.00 | 0.00 | 44 | |
| 20260506183023 | 55 | 328 | 4.0 | 5.0 | 0.00 | 0.00 | 0.00 | 45 | |
| 20260506182520 | 55 | 262 | 1.0 | 5.0 | 0.00 | 0.00 | 0.00 | 44 | |
| 20260506182017 | 55 | 351 | 2.0 | 5.0 | 0.00 | 0.00 | 0.00 | 45 | |
| 20260506181515 | 55 | 313 | 6.0 | 11.0 | 0.00 | 0.00 | 0.00 | 45 | |
| 20260506181012 | 55 | 331 | 3.0 | 7.0 | 0.00 | 0.00 | 0.00 | 47 |